date,batt_volt,AirTemp_C,Solar_kW,RH,Manual_BP,StationID,WS_ms,PTemp,WS_15min_max,Prog_Sig,Solar_Raw,Bar_mbar,Solar_MJ,Max_WS_2min,Pressure_Raw,Rain_mm,WD_15min_ave,Max_AirTemp_1min,WindDir,WS_15min_med,WS_15min_ave,Elevation_Correction
2017-01-01T19:47:53Z,13.14451,2.915272,0.0120582,82.13562,0,1156,3.9004,6.809154,,43690,0.8440738,1010.804,6.029098e-05,5.116,1009.004,0,,2.983,300.1255,,,1.80078
2017-01-01T20:02:52Z,13.15003,3.118664,0.01591715,81.42377,0,1156,8.623999,6.569676,,43690,1.114201,1011.862,7.958576e-05,10.0,1010.061,0,,3.119,291.437,,,1.80078
2017-01-01T20:17:57Z,13.15555,2.915272,0.007235073,81.35597,0,1156,7.369599,6.330196,,43690,0.5064551,1011.862,3.617536e-05,8.74,1010.061,0,,3.017,285.4923,,,1.80078
2017-01-01T20:32:55Z,13.16107,2.677986,0.003858705,82.06783,0,1156,1.5484,6.13364,,43690,0.2701094,1011.862,1.929353e-05,4.312,1010.061,0,,2.644,336.0106,,,1.80078
2017-01-01T20:47:58Z,13.17822,2.306034,0.001929353,81.73065,0,1156,2.352,5.89642,,43690,0.1350547,1011.862,9.646763e-06,5.704,1010.061,0,,2.34,310.0483,,,1.80078
2017-01-01T21:02:54Z,13.18147,2.215668,0.0004823381,81.92213,0,1156,3.8416,5.614014,,43690,0.03376367,1014.101,2.411691e-06,6.292,1012.301,0,,2.283,308.0611,,,1.80078
2017-01-01T21:17:57Z,13.19309,2.149796,0.0,82.16328,0,1156,5.39,5.354198,,43690,0.0,1014.101,0.0,6.448,1012.301,0,,2.184,288.9109,,,1.80078
2017-01-01T21:32:58Z,13.20971,2.149876,0.0,81.75651,0,1156,6.2524,5.116978,,43690,0.0,1014.101,0.0,6.174,1012.301,0,,2.286,292.6191,,,1.80078
2017-01-01T21:48:00Z,13.21523,2.048145,0.0,81.07831,0,1156,5.9388,4.922684,,43690,0.0,1014.101,0.0,6.605,1012.301,0,,2.218,292.6191,,,1.80078
2017-01-01T22:02:59Z,13.20971,2.082054,0.0,80.46794,0,1156,4.9196,4.708054,,43690,0.0,1014.802,0.0,6.546,1013.001,0,,2.082,301.142,,,1.80078
2017-01-01T22:18:03Z,13.21523,2.048145,0.0,80.94268,0,1156,4.6844,4.685463,,43690,0.0,1014.802,0.0,5.547,1013.001,0,,2.116,291.6802,,,1.80078
2017-01-01T22:33:02Z,13.20971,1.946415,0.0,80.53576,0,1156,7.35,4.75098,,43690,0.0,1014.802,0.0,8.57,1013.001,0,,2.082,292.4265,,,1.80078
2017-01-01T22:48:02Z,13.21523,1.776867,0.0,80.43403,0,1156,4.1356,4.728386,,43690,0.0,1014.802,0.0,6.566,1013.001,0,,1.879,331.6463,,,1.80078
2017-01-01T23:03:01Z,13.21523,1.675137,0.0,79.2811,0,1156,3.3712,4.685463,,43690,0.0,1016.429,0.0,4.469,1014.629,0,,1.743,325.1939,,,1.80078
2017-01-01T23:18:02Z,13.20971,1.776867,0.0,80.36621,0,1156,3.4692,4.622204,,43690,0.0,1016.429,0.0,6.958,1014.629,0,,1.743,297.7232,,,1.80078
2017-01-01T23:33:06Z,13.20971,1.539497,0.0,78.90809,0,1156,4.6452,4.53635,,43690,0.0,1016.429,0.0,5.86,1014.629,0,,1.607,290.982,,,1.80078
2017-01-01T23:48:05Z,13.22075,1.336041,0.0,76.43268,0,1156,5.3312,4.407574,,43690,0.0,1016.429,0.0,7.468001,1014.629,0,,1.404,302.8273,,,1.80078
2017-01-02T00:03:06Z,13.21523,0.9969406,0.0,75.1441,0,1156,3.4104,4.170353,,43690,0.0,1017.162,0.0,6.762,1015.361,0,,1.133,353.748,,,1.80078
2017-01-02T00:18:03Z,13.2318,1.064762,0.0,73.61817,0,1156,3.1752,3.978317,,43690,0.0,1017.162,0.0,4.253,1015.361,0,,1.065,292.7636,,,1.80078
2017-01-02T00:33:05Z,13.22104,0.5911293,0.0,72.84022,0,1156,3.0772,3.849537,,43690,0.0,1017.162,0.0,7.546001,1015.361,0,,0.8290001,266.2151,,,1.80078
2017-01-02T00:48:10Z,13.23894,0.52808,0.0,70.13562,0,1156,5.292,3.655243,,43690,0.0,1017.162,0.0,8.25,1015.361,0,,0.596,322.5441,,,1.80078
2017-01-02T01:03:06Z,13.25707,0.3942718,0.0,71.69898,0,1156,4.3316,3.399948,,43690,0.0,1018.714,0.0,6.135,1016.913,0,,0.496,295.4924,,,1.80078
2017-01-02T01:18:10Z,13.26381,0.2642212,0.0,71.36978,0,1156,2.94,3.056541,,43690,0.0,1018.714,0.0,6.801,1016.913,0,,0.502,318.9673,,,1.80078
2017-01-02T01:33:11Z,13.26391,0.1628151,0.0,73.20216,0,1156,4.9784,2.735729,,43690,0.0,1018.714,0.0,9.58,1016.913,0,,0.265,288.5518,,,1.80078
2017-01-02T01:48:09Z,13.26943,0.02713013,0.0,74.25372,0,1156,4.9,2.566284,,43690,0.0,1018.714,0.0,9.639999,1016.913,0,,0.061,314.0088,,,1.80078
2017-01-02T02:03:09Z,13.26943,-0.2781601,0.0,72.65942,0,1156,5.194,2.310989,,43690,0.0,1020.186,0.0,8.96,1018.385,0,,-0.176,315.213,,,1.80078
2017-01-02T02:18:09Z,13.28048,-0.3460045,0.0,73.5753,0,1156,5.782,1.990173,,43690,0.0,1020.186,0.0,6.664,1018.385,0,,-0.278,299.5101,,,1.80078
2017-01-02T02:33:10Z,13.27495,-0.2781601,0.0,72.32021,0,1156,4.704,1.820732,,43690,0.0,1020.186,0.0,11.52,1018.385,0,,-0.244,303.7008,,,1.80078
2017-01-02T02:48:15Z,13.29153,-0.6173744,0.0,73.27001,0,1156,6.487599,1.649029,,43690,0.0,1020.186,0.0,9.82,1018.385,0,,-0.516,292.3812,,,1.80078
2017-01-02T03:03:15Z,13.29153,-0.956585,0.0,73.71098,0,1156,7.212799,1.456993,,43690,0.0,1021.163,0.0,7.997,1019.362,0,,-0.923,283.3015,,,1.80078
2017-01-02T03:18:15Z,13.30905,-1.192318,0.0,73.9517,0,1156,7.212799,1.181362,,43690,0.0,1021.163,0.0,6.586,1019.362,0,,-1.09,284.8796,,,1.80078
2017-01-02T03:33:17Z,13.31204,-1.421272,0.0,73.22154,0,1156,7.448,0.9260674,,43690,0.0,1021.163,0.0,7.918,1019.362,0,,-1.388,328.0403,,,1.80078
2017-01-02T03:48:14Z,13.32366,-1.520302,0.0,71.49623,0,1156,5.488,0.6707726,,43690,0.0,1021.163,0.0,7.664001,1019.362,0,,-1.486,323.9923,,,1.80078
2017-01-02T04:03:20Z,13.32367,-1.79166,0.0,71.22496,0,1156,1.4308,0.4787369,,43690,0.0,1021.665,0.0,6.311,1019.864,0,,-1.69,325.7759,,,1.80078
2017-01-02T04:18:15Z,13.32919,-1.859528,0.0,70.41057,0,1156,4.0768,0.2234421,,43690,0.0,1021.665,0.0,6.37,1019.864,0,,-1.69,300.2622,,,1.80078
2017-01-02T04:33:19Z,13.32919,-1.961327,0.0,70.51237,0,1156,5.0568,0.05399704,,43690,0.0,1021.665,0.0,6.096,1019.864,0,,-1.826,305.948,,,1.80078
2017-01-02T04:48:20Z,13.32367,-1.995258,0.0,70.4445,0,1156,5.4096,-0.07477951,,43690,0.0,1021.665,0.0,6.37,1019.864,0,,-1.893,303.8279,,,1.80078
2017-01-02T05:03:19Z,13.32919,-2.097057,0.0,70.07124,0,1156,5.1352,-0.2012978,,43690,0.0,1022.968,0.0,6.88,1021.167,0,,-2.029,326.1133,,,1.80078
2017-01-02T05:18:19Z,13.33472,-2.029091,0.0,70.20716,0,1156,4.5668,-0.2871513,,43690,0.0,1022.968,0.0,8.25,1021.167,0,,-2.063,318.3082,,,1.80078
2017-01-02T05:33:25Z,13.32941,-1.995228,0.0,70.3767,0,1156,5.7624,-0.158371,,43690,0.0,1022.968,0.0,7.526001,1021.167,0,,-1.927,271.3517,,,1.80078
2017-01-02T05:48:23Z,13.31815,-1.859497,0.0,70.85175,0,1156,4.6844,0.1375885,,43690,0.0,1022.968,0.0,7.958,1021.167,0,,-1.859,295.4199,,,1.80078
2017-01-02T06:03:25Z,13.32368,-2.266693,0.0,69.18904,0,1156,2.2148,0.1805153,,43690,0.0,1024.516,0.0,6.39,1022.715,0,,-2.165,296.6968,,,1.80078
2017-01-02T06:18:22Z,13.3292,-2.334557,0.0,69.9695,0,1156,3.9004,0.0314064,,43690,0.0,1024.516,0.0,6.801,1022.715,0,,-2.267,305.5146,,,1.80078
2017-01-02T06:33:28Z,13.32368,-2.097027,0.0,70.44456,0,1156,3.4104,-0.01152039,,43690,0.0,1024.516,0.0,5.684,1022.715,0,,-2.029,348.953,,,1.80078
2017-01-02T06:48:29Z,13.31815,-1.825565,0.0,70.13916,0,1156,5.2528,0.07432938,,43690,0.0,1024.516,0.0,7.428001,1022.715,0,,-1.893,306.5746,,,1.80078
2017-01-02T07:03:24Z,13.32368,-2.130959,0.0,68.23892,0,1156,1.862,0.1375885,,43690,0.0,1025.819,0.0,5.802,1024.018,0,,-2.029,307.3215,,,1.80078
2017-01-02T07:18:29Z,13.32368,-2.266693,0.0,69.7659,0,1156,3.6848,0.1805153,,43690,0.0,1025.819,0.0,6.096,1024.018,0,,-2.097,272.0022,,,1.80078
2017-01-02T07:33:30Z,13.3292,-2.436356,0.0,68.78185,0,1156,4.4884,0.01107025,,43690,0.0,1025.819,0.0,5.057,1024.018,0,,-2.368,309.8753,,,1.80078
2017-01-02T07:48:29Z,13.34026,-2.707817,0.0,70.1731,0,1156,4.9,-0.2442245,,43690,0.0,1025.819,0.0,4.567,1024.018,0,,-2.572,335.5336,,,1.80078
2017-01-02T08:03:28Z,13.34635,-2.740139,0.0,71.39777,0,1156,3.4104,-0.4995194,,43690,0.0,1026.561,0.0,4.449,1024.76,0,,-2.605,312.1294,,,1.80078
2017-01-02T08:18:28Z,13.35897,-2.633915,0.0,72.32254,0,1156,5.8408,-0.7344818,,43690,0.0,1026.561,0.0,6.625,1024.76,0,,-2.634,287.2267,,,1.80078
2017-01-02T08:33:32Z,13.35909,-2.633636,0.0,72.4249,0,1156,8.1536,-0.7774086,,43690,0.0,1026.561,0.0,6.88,1024.76,0,,-2.498,302.2892,,,1.80078
2017-01-02T08:48:35Z,13.35909,-2.837269,0.0,72.39097,0,1156,4.704,-0.8203316,,43690,0.0,1026.561,0.0,5.547,1024.76,0,,-2.702,294.5301,,,1.80078
2017-01-02T09:03:33Z,13.36491,-3.074837,0.0,73.7485,0,1156,1.4896,-1.010109,,43690,0.0,1027.211,0.0,5.057,1025.41,0,,-2.973,315.012,,,1.80078
2017-01-02T09:18:34Z,13.38232,-3.208851,0.0,73.85382,0,1156,3.4692,-1.267666,,43690,0.0,1027.211,0.0,6.017,1025.41,0,,-3.108,310.858,,,1.80078
2017-01-02T09:33:35Z,13.38271,-3.238731,0.0,75.1179,0,1156,4.9784,-1.500366,,43690,0.0,1027.211,0.0,5.782,1025.41,0,,-3.239,296.8179,,,1.80078
2017-01-02T09:48:33Z,13.38898,-3.374081,0.0,74.6775,0,1156,4.7824,-1.67207,,43690,0.0,1027.211,0.0,3.685,1025.41,0,,-3.238,326.73,,,1.80078
2017-01-02T10:03:34Z,13.389,-3.30619,0.0,74.91511,0,1156,3.9788,-1.864105,,43690,0.0,1028.033,0.0,4.939,1026.232,0,,-3.272,305.859,,,1.80078
2017-01-02T10:18:35Z,13.39453,-3.5438,0.0,75.93344,0,1156,3.1556,-2.013218,,43690,0.0,1028.033,0.0,4.155,1026.232,0,,-3.476,339.7202,,,1.80078
2017-01-02T10:33:38Z,13.40558,-3.8493,0.0,76.84994,0,1156,3.7632,-2.184921,,43690,0.0,1028.033,0.0,4.116,1026.232,0,,-3.612,295.4958,,,1.80078
2017-01-02T10:48:38Z,13.389,-3.8493,0.0,77.69854,0,1156,4.0768,-2.33403,,43690,0.0,1028.033,0.0,4.763,1026.232,0,,-3.781,299.7616,,,1.80078
2017-01-02T11:03:34Z,13.40558,-3.8493,0.0,76.7481,0,1156,2.6656,-2.442474,,43690,0.0,1028.44,0.0,4.665,1026.639,0,,-3.781,323.2355,,,1.80078
2017-01-02T11:18:38Z,13.41111,-3.951134,0.0,77.18938,0,1156,4.3904,-2.568993,,43690,0.0,1028.44,0.0,3.763,1026.639,0,,-3.849,326.8506,,,1.80078
2017-01-02T11:33:41Z,13.40558,-3.883244,0.0004829088,76.71417,0,1156,3.0968,-2.677437,,43690,0.03380362,1028.44,2.414544e-06,4.351,1026.639,0,,-3.815,322.416,,,1.80078
2017-01-02T11:48:39Z,13.40005,-3.713524,0.002897453,75.32245,0,1156,2.842,-2.697769,,43690,0.2028217,1028.44,1.448727e-05,4.194,1026.639,0,,-3.646,299.7616,,,1.80078
2017-01-02T12:03:39Z,13.39453,-4.08691,0.007726751,76.03528,0,1156,3.6456,-2.720364,,43690,0.5408726,1029.499,3.863376e-05,4.175,1027.699,0,,-3.985,310.173,,,1.80078
2017-01-02T12:18:40Z,13.40558,-4.222687,0.01352165,75.96738,0,1156,2.9988,-2.806213,,43690,0.9465156,1029.499,6.760826e-05,4.292,1027.699,0,,-4.155,318.7528,,,1.80078
2017-01-02T12:33:39Z,13.39453,-4.120854,0.01786861,75.32245,0,1156,2.8028,-2.892067,,43690,1.250803,1029.499,8.934306e-05,3.685,1027.699,0,,-4.053,306.8231,,,1.80078
2017-01-02T12:48:42Z,13.38347,-3.713524,0.02124947,73.59129,0,1156,3.5084,-2.84914,,43690,1.487463,1029.499,0.0001062473,4.978,1027.699,0,,-3.646,294.821,,,1.80078
2017-01-02T13:03:43Z,13.36689,-3.374081,0.0241463,71.01152,0,1156,2.7832,-2.697769,,43690,1.690241,1029.662,0.0001207315,5.076,1027.861,0,,-3.306,300.3159,,,1.80078
2017-01-02T13:18:42Z,13.36689,-3.102524,0.02607711,69.72163,0,1156,3.2536,-2.462807,,43690,1.825398,1029.662,0.0001303855,4.645,1027.861,0,,-3.136,302.0271,,,1.80078
2017-01-02T13:33:44Z,13.37241,-2.898857,0.02800873,69.89136,0,1156,3.6848,-2.270771,,43690,1.960611,1029.662,0.0001400436,5.37,1027.861,0,,-2.865,300.2918,,,1.80078
2017-01-02T13:48:42Z,13.36136,-2.559414,0.03090618,66.39509,0,1156,5.096,-2.078735,,43690,2.163433,1029.662,0.0001545309,4.665,1027.861,0,,-2.559,299.8098,,,1.80078
2017-01-02T14:03:46Z,13.3503,-2.253918,0.1033425,65.7841,0,1156,3.4496,-1.864105,,43690,7.233978,1030.395,0.0005167126,5.272,1028.595,0,,-2.186,273.8295,,,1.80078
2017-01-02T14:18:46Z,13.33372,-1.642918,0.3008086,64.01899,0,1156,4.3316,-1.351257,,43690,21.0566,1030.395,0.001504043,5.88,1028.595,0,,-1.575,286.5063,,,1.80078
2017-01-02T14:33:48Z,13.28205,-1.173035,0.3277983,58.78348,0,1156,2.5872,-0.3300743,,43690,22.94588,1030.395,0.001638992,4.959,1028.595,0,,-1.139,304.805,,,1.80078
2017-01-02T14:48:46Z,13.22431,-0.4340744,0.3523609,57.34684,0,1156,4.0376,1.201698,,43690,24.66526,1030.395,0.001761804,4.92,1028.595,0,,-0.434,283.9778,,,1.80078
2017-01-02T15:03:49Z,13.19776,-0.1759186,0.3716056,53.7659,0,1156,3.7436,2.652134,,43690,26.01239,1030.3,0.001858028,4.41,1028.499,0,,-0.04,287.5438,,,1.80078
2017-01-02T15:18:48Z,13.1672,0.3923264,0.3874514,51.85547,0,1156,2.2932,3.892464,,43690,27.12159,1030.3,0.001937257,3.43,1028.499,0,,0.392,240.2641,,,1.80078
2017-01-02T15:33:52Z,13.14901,0.7258377,0.3989647,54.22199,0,1156,3.5084,5.031128,,43690,27.92753,1030.3,0.001994824,4.155,1028.499,0,,0.726,272.0594,,,1.80078
2017-01-02T15:48:53Z,13.12343,0.5790978,0.4085433,54.37667,0,1156,5.5272,6.004864,,43690,28.59803,1030.3,0.002042716,6.331,1028.499,0,,0.7830001,272.8756,,,1.80078
2017-01-02T16:03:53Z,13.11693,0.8136482,0.4143286,57.22047,0,1156,5.3312,6.481564,,43690,29.003,1029.925,0.002071643,6.507,1028.125,0,,0.814,282.027,,,1.80078
2017-01-02T16:18:54Z,13.12243,1.389851,0.4162262,56.5085,0,1156,6.7228,6.612598,,43690,29.13583,1029.925,0.002081131,6.194,1028.125,0,,1.492,280.438,,,1.80078
2017-01-02T16:33:55Z,13.10587,1.288155,0.4142597,51.25426,0,1156,6.9384,6.917598,,43690,28.99818,1029.925,0.002071298,7.37,1028.125,0,,1.593,284.8906,,,1.80078
2017-01-02T16:48:54Z,13.10587,1.118664,0.4084716,50.10172,0,1156,7.1736,7.093822,,43690,28.59301,1029.925,0.002042358,7.487001,1028.125,0,,1.22,284.6981,,,1.80078
2017-01-02T17:03:53Z,13.10587,1.457645,0.40172,52.61019,0,1156,7.056,7.159344,,43690,28.1204,1030.492,0.0020086,8.679999,1028.692,0,,1.492,274.5655,,,1.80078
2017-01-02T17:18:54Z,13.12243,1.389851,0.3901458,55.79664,0,1156,7.154,7.028302,,43690,27.31021,1030.492,0.001950729,8.21,1028.692,0,,1.593,280.7991,,,1.80078
2017-01-02T17:33:55Z,13.12795,1.728832,0.3756782,58.4746,0,1156,7.742,6.917598,,43690,26.29747,1030.492,0.001878391,8.72,1028.692,0,,1.831,283.4225,,,1.80078
2017-01-02T17:48:56Z,13.12243,1.864426,0.3563879,59.83054,0,1156,8.408401,6.917598,,43690,24.94715,1030.492,0.001781939,8.37,1028.692,0,,2.068,288.5489,,,1.80078
2017-01-02T18:03:55Z,13.11691,1.864426,0.334204,61.79664,0,1156,7.898799,6.940197,,43690,23.39428,1030.086,0.00167102,8.78,1028.285,0,,1.966,280.8232,,,1.80078
2017-01-02T18:18:57Z,13.11138,2.000019,0.3100912,62.37291,0,1156,8.5848,6.962788,,43690,21.70638,1030.086,0.001550456,8.639999,1028.285,0,,2.136,284.5296,,,1.80078
2017-01-02T18:33:57Z,13.10034,2.101715,0.2830848,61.66104,0,1156,7.2912,7.028302,,43690,19.81594,1030.086,0.001415424,7.213,1028.285,0,,2.17,287.4418,,,1.80078
2017-01-02T18:48:59Z,13.09482,2.16951,0.2531849,59.38986,0,1156,6.5268,7.093822,,43690,17.72294,1030.086,0.001265924,7.781,1028.285,0,,2.136,275.2875,,,1.80078
2017-01-02T19:04:01Z,13.10034,2.135612,0.2242495,52.4407,0,1156,3.9984,7.159344,,43690,15.69746,1030.411,0.001121247,6.527,1028.61,0,,2.339,284.3852,,,1.80078
2017-01-02T19:19:00Z,13.10587,2.203407,0.1929028,50.23731,0,1156,4.0964,7.136746,,43690,13.50319,1030.411,0.0009645138,6.096,1028.61,0,,2.271,304.3615,,,1.80078
2017-01-02T19:34:02Z,13.10587,2.101715,0.1596271,56.00002,0,1156,5.1548,7.093822,,43690,11.17389,1030.411,0.0007981352,6.664,1028.61,0,,2.102,289.3672,,,1.80078
2017-01-02T19:49:02Z,13.10587,2.000019,0.1268336,52.06782,0,1156,4.1944,6.917598,,43690,8.87835,1030.411,0.0006341678,6.076,1028.61,0,,2.102,279.3791,,,1.80078
2017-01-02T20:04:06Z,13.12243,1.627136,0.09307686,50.339,0,1156,3.626,6.569676,,43690,6.51538,1031.062,0.0004653843,5.292,1029.261,0,,1.864,316.2028,,,1.80078
2017-01-02T20:19:03Z,13.14451,1.186459,0.06029123,52.4407,0,1156,1.1368,6.113308,,43690,4.220386,1031.062,0.0003014561,4.586,1029.261,0,,1.356,314.6384,,,1.80078
2017-01-02T20:34:05Z,13.15048,0.9859886,0.02894028,55.3599,0,1156,2.0776,5.571087,,43690,2.02582,1031.062,0.0001447014,3.41,1029.261,0,,1.154,278.2437,,,1.80078
2017-01-02T20:49:06Z,13.18191,0.2506294,0.004341468,58.79915,0,1156,1.9012,4.75098,,43690,0.3039027,1031.062,2.170734e-05,2.195,1029.261,0,,0.386,288.4278,,,1.80078
2017-01-02T21:04:09Z,13.22075,0.08137512,0.0004824398,60.22379,0,1156,2.7636,3.806614,,43690,0.03377079,1031.404,2.412199e-06,3.998,1029.603,0,,0.149,332.0555,,,1.80078
2017-01-02T21:19:09Z,13.24641,-0.1797943,0.0,61.05313,0,1156,1.7836,2.970692,,43690,0.0,1031.404,0.0,2.038,1029.603,0,,-0.011,307.7688,,,1.80078
2017-01-02T21:34:07Z,13.26388,-0.1764832,0.0,62.31328,0,1156,2.744,2.245472,,43690,0.0,1031.404,0.0,2.92,1029.603,0,,-0.041,305.5305,,,1.80078
2017-01-02T21:49:10Z,13.29153,-0.4138451,0.0,63.97557,0,1156,1.7052,1.691956,,43690,0.0,1031.404,0.0,2.136,1029.603,0,,-0.346,335.6363,,,1.80078
2017-01-02T22:04:08Z,13.29705,-0.4477654,0.0,63.83988,0,1156,2.5872,1.267216,,43690,0.0,1031.095,0.0,2.783,1029.294,0,,-0.346,305.6757,,,1.80078
2017-01-02T22:19:07Z,13.30531,-0.8126411,0.0,65.41406,0,1156,2.254,0.9893265,,43690,0.0,1031.095,0.0,2.685,1029.294,0,,-0.711,341.079,,,1.80078
2017-01-02T22:34:08Z,13.31257,-1.011536,0.0,65.62549,0,1156,1.1564,0.7340317,,43690,0.0,1031.095,0.0,2.548,1029.294,0,,-0.8420001,332.8563,,,1.80078
2017-01-02T22:49:08Z,13.32367,-1.248737,0.0,65.96537,0,1156,1.6268,0.4584046,,43690,0.0,1031.095,0.0,2.058,1029.294,0,,-1.113,346.7362,,,1.80078
2017-01-02T23:04:08Z,13.33472,-1.18087,0.0,64.67593,0,1156,2.2736,0.160183,,43690,0.0,1031.438,0.0,2.92,1029.637,0,,-0.9770001,317.3918,,,1.80078
2017-01-02T23:19:12Z,13.34577,-1.079071,0.0,64.47233,0,1156,2.1168,-0.03185272,,43690,0.0,1031.438,0.0,3.058,1029.637,0,,-0.943,329.1971,,,1.80078
2017-01-02T23:34:12Z,13.34577,-1.282669,0.0,65.55818,0,1156,2.1168,-0.1380386,,43690,0.0,1031.438,0.0,2.803,1029.637,0,,-1.079,320.4275,,,1.80078
2017-01-02T23:49:11Z,13.34577,-1.350536,0.0,66.03324,0,1156,1.96,-0.2668152,,43690,0.0,1031.438,0.0,3.195,1029.637,0,,-1.215,335.0274,,,1.80078
2017-01-03T00:04:12Z,13.34623,-1.588066,0.0,67.39055,0,1156,1.4308,-0.3933334,,43690,0.0,1031.519,0.0,2.136,1029.718,0,,-1.554,327.101,,,1.80078
2017-01-03T00:19:11Z,13.35751,-1.923298,0.0,68.99282,0,1156,0.4312,-0.6057053,,43690,0.0,1031.519,0.0,1.568,1029.718,0,,-1.889,40.21436,,,1.80078
2017-01-03T00:34:11Z,13.36458,-2.056786,0.0,70.01507,0,1156,1.0976,-0.797741,,43690,0.0,1031.519,0.0,2.43,1029.718,0,,-2.023,15.32526,,,1.80078
2017-01-03T00:49:15Z,13.36462,-2.124557,0.0,70.99948,0,1156,0.8624,-0.9694442,,43690,0.0,1031.519,0.0,2.489,1029.718,0,,-2.091,2.240964,,,1.80078
2017-01-03T01:04:11Z,13.37021,-2.156586,0.0,71.91946,0,1156,0.3528,-1.118553,,43690,0.0,1031.206,0.0,3.469,1029.405,0,,-2.123,21.71194,,,1.80078
2017-01-03T01:19:11Z,13.37179,-2.427048,0.0,72.60031,0,1156,0.9604,-1.245071,,43690,0.0,1031.206,0.0,1.548,1029.405,0,,-2.358,43.25641,,,1.80078
2017-01-03T01:34:12Z,13.38863,-2.526371,0.0,73.1822,0,1156,0.9211999,-1.416775,,43690,0.0,1031.206,0.0,2.078,1029.405,0,,-2.459,317.7088,,,1.80078
2017-01-03T01:49:12Z,13.39452,-2.593372,0.0,73.65915,0,1156,0.9799999,-1.543293,,43690,0.0,1031.206,0.0,2.234,1029.405,0,,-2.559,354.566,,,1.80078
2017-01-03T02:04:17Z,13.38347,-2.729137,0.0,74.13439,0,1156,1.9012,-1.58622,,43690,0.0,1031.699,0.0,2.254,1029.898,0,,-2.627,343.0702,,,1.80078
2017-01-03T02:19:16Z,13.389,-2.763081,0.0,75.11878,0,1156,1.8228,-1.60881,,43690,0.0,1031.699,0.0,2.528,1029.898,0,,-2.695,30.8486,,,1.80078
2017-01-03T02:34:18Z,13.389,-3.170414,0.0,76.7481,0,1156,2.3716,-1.651737,,43690,0.0,1031.699,0.0,3.469,1029.898,0,,-3.035,38.07874,,,1.80078
2017-01-03T02:49:17Z,13.39453,-3.2383,0.0,78.27561,0,1156,2.4696,-1.714996,,43690,0.0,1031.699,0.0,2.822,1029.898,0,,-3.103,88.0149,,,1.80078
2017-01-03T03:04:19Z,13.389,-3.204357,0.0,78.54716,0,1156,1.7248,-1.735329,,43690,0.0,1031.699,0.0,2.587,1029.898,0,,-3.136,31.37881,,,1.80078
2017-01-03T03:19:19Z,13.389,-3.272247,0.0,79.1921,0,1156,1.8032,-1.778255,,43690,0.0,1031.699,0.0,3.156,1029.898,0,,-3.204,87.1473,,,1.80078
2017-01-03T03:34:22Z,13.38347,-3.068581,0.0,79.42971,0,1156,2.9596,-1.821182,,43690,0.0,1031.699,0.0,3.273,1029.898,0,,-3.103,46.08009,,,1.80078
2017-01-03T03:49:22Z,13.38347,-3.034637,0.0,79.15816,0,1156,2.4108,-1.821182,,43690,0.0,1031.699,0.0,2.901,1029.898,0,,-3.001,36.4158,,,1.80078
2017-01-03T04:04:21Z,13.38347,-3.034637,0.0,79.15816,0,1156,1.7836,-1.821182,,43690,0.0,1031.292,0.0,2.862,1029.491,0,,-2.967,77.98911,,,1.80078
2017-01-03T04:19:23Z,13.38347,-3.204357,0.0,79.4976,0,1156,2.744,-1.821182,,43690,0.0,1031.292,0.0,2.528,1029.491,0,,-3.035,10.5078,,,1.80078
2017-01-03T04:34:23Z,13.38347,-3.408024,0.0,80.24437,0,1156,1.5484,-1.821182,,43690,0.0,1031.292,0.0,3.116,1029.491,0,,-3.272,75.86827,,,1.80078
2017-01-03T04:49:25Z,13.389,-3.441967,0.0,81.33059,0,1156,2.548,-1.864105,,43690,0.0,1031.292,0.0,3.175,1029.491,0,,-3.374,55.67208,,,1.80078
2017-01-03T05:04:22Z,13.38347,-3.509857,0.0,81.73792,0,1156,2.9008,-1.927364,,43690,0.0,1030.314,0.0,2.881,1028.513,0,,-3.442,65.04716,,,1.80078
2017-01-03T05:19:26Z,13.38347,-3.47591,0.0,81.33059,0,1156,4.6452,-1.949959,,43690,0.0,1030.314,0.0,3.92,1028.513,0,,-3.442,22.53394,,,1.80078
2017-01-03T05:34:26Z,13.38347,-3.5438,0.0,80.82142,0,1156,3.5476,-1.907032,,43690,0.0,1030.314,0.0,4.332,1028.513,0,,-3.442,51.96061,,,1.80078
2017-01-03T05:49:30Z,13.38347,-3.713524,0.0,80.85537,0,1156,3.8024,-1.907032,,43690,0.0,1030.314,0.0,4.645,1028.513,0,,-3.612,54.61166,,,1.80078
2017-01-03T06:04:25Z,13.38347,-3.951134,0.0,80.54987,0,1156,2.4892,-1.949959,,43690,0.0,1030.64,0.0,3.548,1028.839,0,,-3.883,50.75558,,,1.80078
2017-01-03T06:19:26Z,13.39453,-4.052967,0.0,80.95721,0,1156,2.5284,-2.078735,,43690,0.0,1030.64,0.0,3.92,1028.839,0,,-3.951,88.95482,,,1.80078
2017-01-03T06:34:28Z,13.39453,-4.08691,0.0,80.6517,0,1156,3.0184,-2.184921,,43690,0.0,1030.64,0.0,4.077,1028.839,0,,-4.087,53.98505,,,1.80078
2017-01-03T06:49:27Z,13.39453,-4.32452,0.0,80.78748,0,1156,2.8028,-2.270771,,43690,0.0,1030.64,0.0,3.293,1028.839,0,,-4.257,74.47044,,,1.80078
2017-01-03T07:04:31Z,13.40005,-4.39241,0.0,80.78748,0,1156,1.4112,-2.399548,,43690,0.0,1030.558,0.0,3.136,1028.757,0,,-4.392,81.26678,,,1.80078
2017-01-03T07:19:29Z,13.41664,-4.663963,0.0,81.05904,0,1156,1.2544,-2.63451,,43690,0.0,1030.558,0.0,2.332,1028.757,0,,-4.63,102.427,,,1.80078
2017-01-03T07:34:30Z,13.42769,-4.833683,-0.0004829088,80.95721,0,1156,1.7052,-2.892067,,43690,0.0,1030.558,-2.414544e-06,2.901,1028.757,0,,-4.766,79.36284,,,1.80078
2017-01-03T07:49:33Z,13.42217,-4.765797,0.0004829771,80.27832,0,1156,3.4496,-3.06377,,43690,0.0338084,1030.558,2.414886e-06,4.665,1028.757,0,,-4.766,89.94294,,,1.80078
2017-01-03T08:04:29Z,13.41664,-4.969185,0.0,80.10923,0,1156,2.744,-3.084103,,43690,0.0,1029.838,0.0,4.822,1028.037,0,,-4.901,102.6688,,,1.80078
2017-01-03T08:19:34Z,13.42818,-5.070747,0.0,79.70251,0,1156,3.3712,-3.14962,,43690,0.0,1029.838,0.0,4.253,1028.037,0,,-5.003,95.15012,,,1.80078
2017-01-03T08:34:33Z,13.42808,-5.036736,0.0,78.37882,0,1156,4.704,-3.192547,,43690,0.0,1029.838,0.0,5.762,1028.037,0,,-4.935,89.5107,,,1.80078
2017-01-03T08:49:35Z,13.43344,-5.205162,0.0,77.66887,0,1156,2.2932,-3.255806,,43690,0.0,1029.838,0.0,4.763,1028.037,0,,-5.07,76.6437,,,1.80078
2017-01-03T09:04:36Z,13.43357,-5.341194,0.0,77.8041,0,1156,2.646,-3.321323,,43690,0.0,1030.276,0.0,4.41,1028.475,0,,-5.239,84.16284,,,1.80078
2017-01-03T09:19:33Z,13.44609,-5.474293,0.0,77.74225,0,1156,2.3912,-3.4501,,43690,0.0,1030.276,0.0,2.724,1028.475,0,,-5.373,60.21052,,,1.80078
2017-01-03T09:34:38Z,13.45198,-5.472824,0.0,77.16841,0,1156,2.0972,-3.66473,,43690,0.0,1030.276,0.0,1.98,1028.475,0,,-5.439,76.48363,,,1.80078
2017-01-03T09:49:34Z,13.45937,-5.706982,0.0,76.70092,0,1156,1.9012,-3.879356,,43690,0.0,1030.276,0.0,1.744,1028.475,0,,-5.64,94.78862,,,1.80078
2017-01-03T10:04:34Z,13.45433,-6.214028,0.0,77.86054,0,1156,1.5288,-4.096245,,43690,0.0,1031.059,0.0,1.431,1029.258,0,,-6.112,74.95358,,,1.80078
2017-01-03T10:19:35Z,13.47097,-6.315792,0.0,78.94736,0,1156,1.7052,-4.310875,,43690,0.0,1031.059,0.0,1.862,1029.258,0,,-6.248,67.6971,,,1.80078
2017-01-03T10:34:38Z,13.48203,-6.34975,0.0,78.53989,0,1156,1.568,-4.548096,,43690,0.0,1031.059,0.0,2.156,1029.258,0,,-6.248,84.30797,,,1.80078
2017-01-03T10:49:37Z,13.48756,-6.655354,0.0,78.57385,0,1156,1.4308,-4.722057,,43690,0.0,1031.059,0.0,2.058,1029.258,0,,-6.52,119.4343,,,1.80078
2017-01-03T11:04:38Z,13.49309,-7.300514,0.0,80.27164,0,1156,1.6464,-4.96154,,43690,0.0,1030.168,0.0,1.666,1028.367,0,,-7.097,83.51238,,,1.80078
2017-01-03T11:19:40Z,13.50415,-6.757222,0.0,81.49405,0,1156,1.2544,-5.198761,,43690,0.0,1030.168,0.0,2.078,1028.367,0,,-6.723001,118.2289,,,1.80078